| time (UTC) | temp F | wind direction | speed knots | gust knots | rain 1hr in | rain 24hr in | rain mn in | humidity % | barometer mb |
| 20260505211531 | 55 | 99 | 9.6 | 14.8 | 0.00 | 0.29 | 0.10 | 69 | 867.0 |
| 20260505210531 | 55 | 83 | 8.7 | 13.9 | 0.00 | 0.29 | 0.10 | 70 | 867.0 |
| 20260505205529 | 55 | 72 | 9.6 | 20.0 | 0.01 | 0.29 | 0.10 | 70 | 867.0 |
| 20260505204530 | 55 | 98 | 11.3 | 18.2 | 0.01 | 0.29 | 0.10 | 70 | 867.1 |
| 20260505203529 | 56 | 96 | 10.4 | 18.2 | 0.01 | 0.29 | 0.10 | 69 | 867.1 |
| 20260505203016 | 56 | 142 | 11.3 | 17.4 | 0.00 | 0.29 | 0.09 | 70 | 867.1 |
| 20260505201530 | 56 | 107 | 11.3 | 18.2 | 0.01 | 0.29 | 0.09 | 71 | 867.2 |
| 20260505201448 | 55 | 94 | 13.9 | 23.5 | 0.01 | 0.29 | 0.09 | 72 | 867.1 |
| 20260505195526 | 54 | 82 | 13.0 | 20.0 | 0.00 | 0.29 | 0.09 | 75 | 867.0 |
| 20260505194526 | 54 | 87 | 11.3 | 16.5 | 0.00 | 0.29 | 0.09 | 76 | 867.0 |
| 20260505193526 | 54 | 81 | 13.0 | 19.1 | 0.01 | 0.29 | 0.09 | 76 | 867.0 |
| 20260505192527 | 53 | 85 | 13.9 | 19.1 | 0.01 | 0.29 | 0.09 | 77 | 866.9 |
| 20260505191527 | 53 | 73 | 12.2 | 18.2 | 0.00 | 0.28 | 0.09 | 78 | 866.9 |
| 20260505191014 | 53 | 72 | 13.0 | 18.2 | 0.00 | 0.28 | 0.09 | 78 | 866.9 |
| 20260505185525 | 52 | 80 | 13.0 | 19.1 | 0.00 | 0.28 | 0.09 | 79 | 866.8 |
| 20260505184526 | 52 | 68 | 11.3 | 16.5 | 0.00 | 0.28 | 0.09 | 79 | 866.8 |
| 20260505183526 | 52 | 38 | 11.3 | 16.5 | 0.00 | 0.28 | 0.08 | 80 | 866.8 |
| 20260505182842 | 51 | 41 | 10.4 | 15.6 | 0.00 | 0.28 | 0.08 | 86 | 866.7 |
| 20260505182525 | 51 | 64 | 9.6 | 15.6 | 0.00 | 0.28 | 0.08 | 82 | 866.8 |
| 20260505181601 | 51 | 56 | 11.3 | 16.5 | 0.00 | 0.28 | 0.08 | 84 | 866.7 |
| 20260505175522 | 52 | 47 | 10.4 | 19.1 | 0.00 | 0.28 | 0.08 | 85 | 866.8 |
| 20260505174522 | 52 | 43 | 11.3 | 19.1 | 0.00 | 0.28 | 0.08 | 85 | 866.8 |
| 20260505174448 | 52 | 44 | 9.6 | 13.0 | 0.01 | 0.28 | 0.08 | 84 | 866.8 |
| 20260505172523 | 52 | 51 | 11.3 | 18.2 | 0.01 | 0.28 | 0.08 | 83 | 866.8 |
| 20260505171523 | 53 | 58 | 10.4 | 16.5 | 0.02 | 0.28 | 0.08 | 82 | 866.8 |
| 20260505170523 | 53 | 48 | 9.6 | 13.0 | 0.02 | 0.28 | 0.08 | 81 | 866.9 |
| 20260505165521 | 53 | 49 | 10.4 | 13.9 | 0.02 | 0.28 | 0.08 | 79 | 866.9 |
| 20260505164521 | 53 | 49 | 12.2 | 18.2 | 0.02 | 0.28 | 0.08 | 80 | 866.9 |
| 20260505163521 | 54 | 36 | 13.9 | 21.7 | 0.02 | 0.27 | 0.07 | 78 | 866.9 |
| 20260505162522 | 54 | 60 | 13.9 | 21.7 | 0.02 | 0.26 | 0.07 | 78 | 866.9 |
| 20260505161523 | 55 | 56 | 11.3 | 14.8 | 0.02 | 0.26 | 0.06 | 76 | 867.0 |
| 20260505160522 | 55 | 40 | 11.3 | 17.4 | 0.02 | 0.26 | 0.06 | 77 | 867.0 |
| 20260505152518 | 56 | 47 | 11.3 | 20.0 | 0.02 | 0.25 | 0.05 | 71 | 867.1 |
| 20260505151520 | 56 | 51 | 11.3 | 18.2 | 0.02 | 0.24 | 0.04 | 72 | 867.1 |
| 20260505150520 | 56 | 50 | 11.3 | 17.4 | 0.02 | 0.24 | 0.04 | 73 | 867.1 |
| 20260505140518 | 57 | 54 | 12.2 | 17.4 | 0.02 | 0.22 | 0.02 | 77 | 867.2 |
| 20260505124511 | 63 | 39 | 12.2 | 19.1 | 0.00 | 0.20 | 0.00 | 85 | 867.6 |
| 20260505123511 | 64 | 54 | 11.3 | 18.2 | 0.00 | 0.20 | 0.00 | 91 | 867.7 |
| 20260505122511 | 63 | 35 | 8.7 | 13.9 | 0.00 | 0.20 | 0.00 | 92 | 867.7 |
| 20260505121512 | 63 | 43 | 7.8 | 11.3 | 0.00 | 0.20 | 0.00 | 93 | 867.7 |
| 20260505120511 | 62 | 21 | 7.0 | 12.2 | 0.00 | 0.20 | 0.00 | 92 | 867.7 |
| 20260505115511 | 61 | 0 | 5.2 | 7.8 | 0.00 | 0.20 | 0.00 | 88 | 867.5 |
| 20260505114510 | 60 | 34 | 5.2 | 8.7 | 0.00 | 0.20 | 0.00 | 79 | 867.4 |
| 20260505113505 | 60 | 18 | 7.8 | 11.3 | 0.00 | 0.20 | 0.00 | 70 | 867.4 |
| 20260505112506 | 60 | 2 | 5.2 | 7.8 | 0.00 | 0.20 | 0.00 | 75 | 867.4 |
| 20260505111505 | 61 | 337 | 5.2 | 7.0 | 0.00 | 0.20 | 0.00 | 77 | 867.5 |
| 20260505110505 | 61 | 355 | 4.3 | 7.0 | 0.00 | 0.20 | 0.00 | 76 | 867.5 |
| 20260505110419 | 62 | 318 | 3.5 | 6.1 | 0.00 | 0.20 | 0.00 | 77 | 867.5 |
| 20260505101501 | 65 | 237 | 6.1 | 7.8 | 0.00 | 0.20 | 0.00 | 78 | 867.8 |
| 20260505100501 | 65 | 241 | 5.2 | 7.0 | 0.00 | 0.20 | 0.00 | 78 | 867.8 |
| 20260505095501 | 65 | 231 | 5.2 | 7.0 | 0.00 | 0.20 | 0.00 | 78 | 867.8 |
| 20260505094501 | 66 | 249 | 3.5 | 6.1 | 0.00 | 0.20 | 0.00 | 76 | 867.9 |
| 20260505093455 | 66 | 223 | 5.2 | 8.7 | 0.00 | 0.20 | 0.00 | 75 | 867.9 |
| 20260505092456 | 67 | 221 | 6.1 | 8.7 | 0.00 | 0.20 | 0.00 | 74 | 867.9 |
| 20260505091456 | 68 | 220 | 5.2 | 7.8 | 0.00 | 0.20 | 0.00 | 72 | 868.0 |
| 20260505090456 | 69 | 204 | 6.1 | 8.7 | 0.00 | 0.20 | 0.00 | 71 | 868.1 |
| 20260505085449 | 69 | 209 | 5.2 | 7.8 | 0.00 | 0.20 | 0.00 | 71 | 868.1 |
| 20260505084450 | 69 | 218 | 4.3 | 7.0 | 0.00 | 0.20 | 0.00 | 71 | 868.1 |
| 20260505083449 | 69 | 221 | 6.1 | 8.7 | 0.00 | 0.20 | 0.00 | 70 | 868.2 |
| 20260505082444 | 70 | 232 | 6.1 | 10.4 | 0.00 | 0.20 | 0.00 | 71 | 868.2 |
| 20260505081442 | 70 | 222 | 7.8 | 11.3 | 0.00 | 0.20 | 0.00 | 70 | 868.2 |
| 20260505080442 | 70 | 232 | 7.0 | 10.4 | 0.00 | 0.20 | 0.00 | 71 | 868.2 |
| 20260505075927 | 71 | 238 | 7.8 | 11.3 | 0.00 | 0.20 | 0.00 | 70 | 868.3 |
| 20260505074442 | 71 | 230 | 6.1 | 9.6 | 0.00 | 0.20 | 0.00 | 69 | 868.3 |
| 20260505073442 | 72 | 232 | 7.0 | 10.4 | 0.00 | 0.20 | 0.00 | 69 | 868.3 |
| 20260505072438 | 72 | 233 | 7.8 | 11.3 | 0.00 | 0.20 | 0.00 | 67 | 868.5 |
| 20260505071438 | 73 | 251 | 7.8 | 13.0 | 0.00 | 0.20 | 0.00 | 67 | 868.5 |
| 20260505070439 | 73 | 228 | 7.8 | 11.3 | 0.00 | 0.20 | 0.00 | 66 | 868.5 |
| 20260505065439 | 73 | 237 | 7.8 | 12.2 | 0.00 | 0.20 | 0.00 | 67 | 868.6 |
| 20260505064439 | 73 | 228 | 7.8 | 12.2 | 0.00 | 0.20 | 0.00 | 66 | 868.6 |
| 20260505063438 | 73 | 219 | 7.8 | 12.2 | 0.00 | 0.20 | 0.00 | 68 | 868.5 |
| 20260505062914 | 73 | 230 | 7.0 | 10.4 | 0.00 | 0.20 | 0.00 | 68 | 868.5 |
| 20260505061433 | 73 | 221 | 7.0 | 11.3 | 0.00 | 0.20 | 0.00 | 69 | 868.5 |
| 20260505060434 | 73 | 227 | 7.0 | 10.4 | 0.00 | 0.20 | 0.00 | 69 | 868.5 |
| 20260505055908 | 73 | 221 | 7.8 | 11.3 | 0.00 | 0.20 | 0.00 | 69 | 868.6 |
| 20260505054434 | 73 | 221 | 7.0 | 11.3 | 0.00 | 0.20 | 0.00 | 69 | 868.6 |
| 20260505053432 | 74 | 216 | 8.7 | 13.0 | 0.00 | 0.20 | 0.00 | 68 | 868.6 |
| 20260505052433 | 74 | 234 | 7.0 | 10.4 | 0.00 | 0.20 | 0.00 | 68 | 868.6 |
| 20260505051433 | 74 | 226 | 7.0 | 11.3 | 0.00 | 0.20 | 0.00 | 67 | 868.6 |
| 20260505050432 | 75 | 227 | 7.8 | 11.3 | 0.00 | 0.20 | 0.00 | 66 | 868.7 |
| 20260505041429 | 76 | 220 | 11.3 | 17.4 | 0.00 | 0.20 | 0.20 | 64 | 868.8 |
| 20260505041407 | 76 | 210 | 14.8 | 22.6 | 0.00 | 0.20 | 0.20 | 64 | 868.8 |
| 20260505035429 | 77 | 214 | 16.5 | 22.6 | 0.01 | 0.20 | 0.20 | 63 | 868.8 |
| 20260505034430 | 77 | 225 | 13.0 | 16.5 | 0.01 | 0.20 | 0.20 | 62 | 868.9 |
| 20260505033428 | 77 | 206 | 13.0 | 18.2 | 0.00 | 0.20 | 0.20 | 63 | 868.9 |
| 20260505032423 | 77 | 218 | 12.2 | 16.5 | 0.01 | 0.20 | 0.20 | 62 | 868.9 |
| 20260505031424 | 77 | 206 | 12.2 | 16.5 | 0.01 | 0.20 | 0.20 | 62 | 868.9 |
| 20260505030424 | 77 | 219 | 13.0 | 18.2 | 0.01 | 0.20 | 0.20 | 62 | 868.9 |
| 20260505025425 | 78 | 214 | 14.8 | 20.0 | 0.00 | 0.20 | 0.19 | 60 | 869.0 |
| 20260505024424 | 78 | 216 | 16.5 | 22.6 | 0.00 | 0.20 | 0.19 | 60 | 869.0 |
| 20260505023902 | 79 | 216 | 13.9 | 20.0 | 0.01 | 0.20 | 0.19 | 60 | 869.0 |
| 20260505022857 | 79 | 224 | 13.0 | 22.6 | 0.01 | 0.19 | 0.19 | 59 | 869.0 |
| 20260505021423 | 79 | 226 | 15.6 | 21.7 | 0.01 | 0.19 | 0.19 | 57 | 869.1 |
| 20260505020905 | 79 | 222 | 13.9 | 20.9 | 0.01 | 0.19 | 0.19 | 57 | 869.1 |
| 20260505015424 | 80 | 221 | 12.2 | 18.2 | 0.01 | 0.19 | 0.19 | 56 | 869.1 |
| 20260505014424 | 81 | 217 | 13.0 | 20.0 | 0.01 | 0.19 | 0.19 | 53 | 869.2 |
| 20260505013425 | 81 | 218 | 9.6 | 18.2 | 0.02 | 0.19 | 0.19 | 51 | 869.2 |
| 20260505012905 | 81 | 222 | 6.1 | 8.7 | 0.02 | 0.19 | 0.18 | 51 | 869.2 |
| 20260505011418 | 81 | 222 | 10.4 | 25.2 | 0.04 | 0.19 | 0.18 | 52 | 869.2 |
| 20260505010419 | 82 | 195 | 9.6 | 19.1 | 0.05 | 0.19 | 0.18 | 51 | 869.2 |
| 20260505005415 | 82 | 198 | 9.6 | 21.7 | 0.06 | 0.19 | 0.18 | 51 | 869.3 |
| 20260505004853 | 83 | 211 | 16.5 | 25.2 | 0.07 | 0.19 | 0.18 | 50 | 869.3 |
| 20260505003848 | 83 | 195 | 16.5 | 24.3 | 0.08 | 0.17 | 0.17 | 49 | 869.3 |
| 20260505002413 | 83 | 197 | 19.1 | 25.2 | 0.08 | 0.16 | 0.16 | 47 | 869.4 |
| 20260505001857 | 84 | 201 | 18.2 | 25.2 | 0.08 | 0.15 | 0.14 | 45 | 869.4 |
| 20260505000413 | 84 | 192 | 16.5 | 22.6 | 0.08 | 0.13 | 0.13 | 47 | 869.4 |
| 20260504235414 | 85 | 209 | 14.8 | 26.9 | 0.09 | 0.13 | 0.12 | 45 | 869.5 |
| 20260504234410 | 85 | 197 | 20.0 | 26.9 | 0.09 | 0.12 | 0.11 | 41 | 869.5 |
| 20260504233411 | 86 | 208 | 18.2 | 28.7 | 0.06 | 0.09 | 0.08 | 39 | 869.6 |
| 20260504232854 | 87 | 215 | 18.2 | 26.1 | 0.06 | 0.08 | 0.07 | 36 | 869.6 |
| 20260504231411 | 87 | 216 | 16.5 | 22.6 | 0.05 | 0.07 | 0.06 | 34 | 869.7 |
| 20260504231328 | 88 | 218 | 16.5 | 21.7 | 0.04 | 0.06 | 0.05 | 34 | 869.7 |
| 20260504225411 | 88 | 218 | 15.6 | 21.7 | 0.02 | 0.04 | 0.04 | 33 | 869.8 |
| 20260504224409 | 88 | 216 | 14.8 | 21.7 | 0.01 | 0.03 | 0.02 | 32 | 869.8 |
| 20260504223409 | 89 | 212 | 18.2 | 22.6 | 0.01 | 0.03 | 0.02 | 32 | 869.8 |
| 20260504222409 | 89 | 209 | 17.4 | 22.6 | 0.00 | 0.02 | 0.02 | 32 | 869.9 |
| 20260504221410 | 90 | 229 | 13.9 | 22.6 | 0.00 | 0.02 | 0.01 | 30 | 870.0 |
| 20260504220410 | 91 | 234 | 9.6 | 14.8 | 0.00 | 0.02 | 0.01 | 27 | 870.0 |
| 20260504215410 | 91 | 243 | 11.3 | 16.5 | 0.00 | 0.02 | 0.01 | 25 | 870.1 |
| 20260504214856 | 90 | 226 | 10.4 | 16.5 | 0.00 | 0.02 | 0.01 | 25 | 870.0 |
| 20260504213407 | 90 | 253 | 8.7 | 15.6 | 0.00 | 0.02 | 0.01 | 27 | 870.0 |
| 20260504212407 | 90 | 234 | 9.6 | 15.6 | 0.00 | 0.02 | 0.01 | 27 | 870.0 |